Home   Weather   Ellwangen (Jagst)   Past weeks

Flag for Germany Past Weather in Ellwangen (Jagst), Baden-Württemberg, Germany — Yesterday and Last 2 Weeks

Now
14 °F

Cold.


Feels Like: 8 °F
Forecast: 4 / 18 °F
Wind: 3 mph from Northeast

Location: Niederstetten

Current Time: Jan 19, 2017 at 3:47:44 am

Latest Report: Jan 19, 2017 at 2:20 am


Visibility: N/A

Pressure: 30.51 "Hg

Humidity: 85%

Dew Point: 10 °F

Location of Ellwangen (Jagst)Location

Past Weather in Ellwangen (Jagst) — Graph

°F

Ellwangen (Jagst) Temperature Yesterday

Maximum temperature yesterday: 25 °F (at 2:20 pm)
Minimum temperature yesterday: 16 °F (at 9:20 pm)
Average temperature yesterday: 22 °F

High & Low Weather Summary for the Past Weeks

 TemperatureHumidityPressure
High39 °F (Jan 13, 1:20 am)100% (Jan 4, 3:50 pm)30.66 "Hg (Jan 4, 3:50 pm)
Low7 °F (Jan 6, 5:20 am)54% (Jan 7, 1:20 pm)29.24 "Hg (Jan 13, 1:20 am)
Average27 °F86%30.07 "Hg
* Reported Jan 4 2:20 am — Jan 19 2:20 am, Ellwangen (Jagst), Weather by CustomWeather, © 2017

Note: Actual official high and low records may vary slightly from our data, if they occured in-between our weather recording intervals... More about our weather records

Advertising

Ellwangen (Jagst) Weather History for the Previous 24 Hours

Scroll right to see more
 ConditionsComfort  
Time TempWeatherWind HumidityBarometerVisibility
2:20 am
Thu, Jan 19
14 °FCold.3 mph85%30.51 "HgN/A
1:20 am16 °FCold.8 mph79%30.51 "HgN/A
12:20 am16 °FCold.12 mph86%30.51 "HgN/A
11:20 pm
Wed, Jan 18
16 °FCold.8 mph79%30.51 "HgN/A
10:20 pm16 °FCold.7 mph79%30.51 "HgN/A
9:20 pm16 °FCold.6 mph79%30.54 "HgN/A
8:20 pm18 °FCold.7 mph79%30.54 "HgN/A
7:20 pm18 °FCold.8 mph73%30.54 "HgN/A
6:20 pm19 °FCold.7 mph73%30.54 "HgN/A
5:20 pm21 °FPassing clouds.8 mph74%30.54 "HgN/A
4:20 pm23 °FPassing clouds.7 mph68%30.54 "HgN/A
3:20 pm25 °FPassing clouds.12 mph63%30.54 "HgN/A
2:20 pm25 °FPassing clouds.12 mph63%30.54 "HgN/A
1:20 pm23 °FPassing clouds.10 mph68%30.54 "HgN/A
12:20 pm23 °FPassing clouds.10 mph68%30.54 "HgN/A
11:20 am23 °FPassing clouds.15 mph63%30.54 "HgN/A
10:42 am23 °FScattered clouds.14 mph68%30.54 "HgN/A
10:20 am23 °FPartly sunny.10 mph74%30.54 "HgN/A
9:20 am23 °FPartly sunny.12 mph74%30.54 "HgN/A
8:20 am23 °FPartly sunny.8 mph74%30.54 "HgN/A
7:20 am23 °FPassing clouds.16 mph68%30.51 "HgN/A
6:20 am23 °FPassing clouds.14 mph74%30.51 "HgN/A
5:20 am23 °FPassing clouds.15 mph74%30.51 "HgN/A
4:20 am23 °FPassing clouds.12 mph74%30.51 "HgN/A
3:20 am23 °FPassing clouds.15 mph74%30.51 "HgN/A
Weather by CustomWeather, © 2017

See weather overviewHow to use our weather pages